When you browse on this site, cookies collect data to enhance your experience and personalize the content and advertising you see.
Visit our Privacy Policy to learn more. By continuing to use the site, you agree to this use of cookies and data.
  • In Spain
  • List of Countries
  • For 7 days
  • Water Temperature
  • Weather Map
  • Weather Widgets
  • user-avatar
    Login

    Hourly Weather Aqtobe

    Today, 22 November, Friday

    Time Temperature Precipitation Wind Pressure Humidity
    00:00 -14°C° 0 mm 1 mps 760 mmHg 87%
    01:00 -14°C° 0 mm 1 mps 760 mmHg 88%
    02:00 -14°C° 0 mm 1 mps 760 mmHg 88%
    03:00 -14°C° 0 mm 1 mps 760 mmHg 88%
    04:00 -16°C° 0 mm 2 mps 759 mmHg 88%
    05:00 -16°C° 0 mm 2 mps 759 mmHg 88%
    06:00 -16°C° 0 mm 2 mps 759 mmHg 88%
    07:00 -16°C° 0 mm 2 mps 759 mmHg 87%
    08:00 -15°C° 0 mm 2 mps 759 mmHg 83%
    09:00 -14°C° 0 mm 2 mps 759 mmHg 78%
    10:00 -13°C° 0 mm 2 mps 759 mmHg 74%
    11:00 -12°C° 0 mm 2 mps 759 mmHg 69%
    12:00 -10°C° 0 mm 2 mps 758 mmHg 65%
    13:00 -9°C° 0 mm 2 mps 758 mmHg 61%
    14:00 -10°C° 0 mm 2 mps 758 mmHg 65%
    15:00 -10°C° 0 mm 2 mps 758 mmHg 69%
    16:00 -10°C° 0 mm 2 mps 758 mmHg 72%
    17:00 -12°C° 0 mm 2 mps 757 mmHg 75%
    18:00 -12°C° 0 mm 2 mps 757 mmHg 77%
    19:00 -11°C° 0 mm 1 mps 757 mmHg 80%
    20:00 -11°C° 0 mm 1 mps 757 mmHg 81%
    21:00 -11°C° 0 mm 1 mps 757 mmHg 82%
    22:00 -11°C° 0 mm 1 mps 757 mmHg 84%
    23:00 -11°C° 0 mm 0 mps 757 mmHg 84%

    Tomorrow, 23 November, Saturday

    Time Temperature Precipitation Wind Pressure Humidity
    00:00 -11°C° 0 mm 0 mps 757 mmHg 85%
    01:00 -11°C° 0 mm 0 mps 756 mmHg 86%
    02:00 -11°C° 0 mm 0 mps 756 mmHg 86%
    03:00 -11°C° 0 mm 0 mps 756 mmHg 87%
    04:00 -11°C° 0 mm 0 mps 756 mmHg 87%
    05:00 -11°C° 0 mm 0 mps 756 mmHg 88%
    06:00 -11°C° 0 mm 0 mps 756 mmHg 88%
    07:00 -11°C° 0 mm 0 mps 755 mmHg 88%
    08:00 -11°C° 0 mm 0 mps 755 mmHg 85%
    09:00 -10°C° 0 mm 0 mps 756 mmHg 82%
    10:00 -9°C° 0 mm 0 mps 756 mmHg 79%
    11:00 -9°C° 0 mm 0 mps 755 mmHg 76%
    12:00 -8°C° 0 mm 1 mps 755 mmHg 73%
    13:00 -7°C° 0 mm 1 mps 755 mmHg 70%
    14:00 -8°C° 0 mm 1 mps 754 mmHg 73%
    15:00 -8°C° 0 mm 1 mps 754 mmHg 77%
    16:00 -8°C° 0 mm 1 mps 754 mmHg 80%
    17:00 -9°C° 0 mm 1 mps 754 mmHg 82%
    18:00 -9°C° 0 mm 1 mps 753 mmHg 85%
    19:00 -12°C° 0 mm 2 mps 753 mmHg 87%
    20:00 -12°C° 0 mm 2 mps 753 mmHg 88%
    21:00 -12°C° 0 mm 2 mps 753 mmHg 88%
    22:00 -12°C° 0 mm 2 mps 753 mmHg 88%
    23:00 -12°C° 0 mm 2 mps 752 mmHg 90%

    Day after tomorrow, 24 November, Sunday

    Time Temperature Precipitation Wind Pressure Humidity
    00:00 -12°C° 0 mm 2 mps 752 mmHg 92%
    01:00 -13°C° 0 mm 3 mps 752 mmHg 93%
    02:00 -13°C° 0 mm 3 mps 752 mmHg 94%
    03:00 -12°C° 0 mm 3 mps 752 mmHg 96%
    04:00 -12°C° 0 mm 3 mps 752 mmHg 97%
    05:00 -13°C° 0 mm 3 mps 752 mmHg 96%
    06:00 -13°C° 0 mm 3 mps 752 mmHg 96%
    07:00 -13°C° 0 mm 2 mps 752 mmHg 95%
    08:00 -12°C° 0 mm 2 mps 752 mmHg 92%
    09:00 -10°C° 0 mm 2 mps 752 mmHg 88%
    10:00 -10°C° 0 mm 2 mps 752 mmHg 85%
    11:00 -9°C° 0 mm 2 mps 752 mmHg 80%
    12:00 -8°C° 0 mm 2 mps 752 mmHg 76%
    13:00 -7°C° 0 mm 2 mps 752 mmHg 72%
    14:00 -7°C° 0 mm 2 mps 752 mmHg 76%
    15:00 -8°C° 0 mm 2 mps 752 mmHg 80%
    16:00 -8°C° 0 mm 2 mps 752 mmHg 84%
    17:00 -9°C° 0 mm 2 mps 752 mmHg 87%
    18:00 -9°C° 0 mm 2 mps 752 mmHg 90%
    19:00 -10°C° 0 mm 2 mps 752 mmHg 92%
    20:00 -10°C° 0 mm 2 mps 752 mmHg 93%
    21:00 -10°C° 0 mm 2 mps 752 mmHg 94%
    22:00 -10°C° 0 mm 2 mps 752 mmHg 95%
    23:00 -10°C° 0 mm 2 mps 752 mmHg 95%

    25 November, Monday

    Time Temperature Precipitation Wind Pressure Humidity
    00:00 -12°C° 0 mm 2 mps 752 mmHg 95%
    01:00 -12°C° 0 mm 2 mps 752 mmHg 95%
    02:00 -12°C° 0 mm 2 mps 752 mmHg 95%
    03:00 -12°C° 0 mm 2 mps 752 mmHg 95%
    04:00 -12°C° 0 mm 2 mps 751 mmHg 95%
    05:00 -10°C° 0 mm 1 mps 752 mmHg 95%
    06:00 -10°C° 0 mm 1 mps 752 mmHg 95%
    07:00 -10°C° 0 mm 1 mps 752 mmHg 95%
    08:00 -10°C° 0 mm 1 mps 752 mmHg 92%
    09:00 -9°C° 0 mm 1 mps 752 mmHg 90%
    10:00 -8°C° 0 mm 1 mps 752 mmHg 88%
    11:00 -8°C° 0 mm 1 mps 752 mmHg 85%
    12:00 -7°C° 0 mm 0 mps 752 mmHg 82%
    13:00 -6°C° 0 mm 0 mps 752 mmHg 79%
    14:00 -7°C° 0 mm 0 mps 752 mmHg 82%
    15:00 -7°C° 0 mm 0 mps 752 mmHg 85%
    16:00 -8°C° 0 mm 0 mps 752 mmHg 87%
    17:00 -8°C° 0 mm 0 mps 752 mmHg 88%
    18:00 -8°C° 0 mm 0 mps 752 mmHg 89%
    19:00 -9°C° 0 mm 0 mps 752 mmHg 90%
    20:00 -9°C° 0 mm 0 mps 752 mmHg 90%
    21:00 -9°C° 0 mm 0 mps 752 mmHg 90%
    22:00 -9°C° 0 mm 0 mps 752 mmHg 91%
    23:00 -9°C° 0 mm 0 mps 752 mmHg 91%

    26 November, Tuesday

    Time Temperature Precipitation Wind Pressure Humidity
    00:00 -10°C° 0 mm 0 mps 752 mmHg 91%
    01:00 -10°C° 0 mm 0 mps 752 mmHg 91%
    02:00 -10°C° 0 mm 0 mps 752 mmHg 92%
    03:00 -10°C° 0 mm 0 mps 752 mmHg 92%
    04:00 -10°C° 0 mm 0 mps 752 mmHg 92%
    05:00 -10°C° 0 mm 0 mps 752 mmHg 92%
    06:00 -10°C° 0 mm 0 mps 752 mmHg 92%
    07:00 -10°C° 0 mm 0 mps 752 mmHg 92%
    08:00 -9°C° 0 mm 0 mps 752 mmHg 90%
    09:00 -9°C° 0 mm 1 mps 752 mmHg 88%
    10:00 -8°C° 0 mm 1 mps 752 mmHg 86%
    11:00 -7°C° 0 mm 1 mps 752 mmHg 83%
    12:00 -6°C° 0 mm 1 mps 752 mmHg 81%
    13:00 -6°C° 0 mm 1 mps 752 mmHg 78%
    14:00 -6°C° 0 mm 1 mps 752 mmHg 81%
    15:00 -7°C° 0 mm 1 mps 752 mmHg 84%
    16:00 -8°C° 0 mm 1 mps 752 mmHg 87%
    17:00 -8°C° 0 mm 1 mps 752 mmHg 88%
    18:00 -8°C° 0 mm 1 mps 752 mmHg 89%
    19:00 -9°C° 0 mm 1 mps 752 mmHg 90%
    20:00 -10°C° 0 mm 2 mps 752 mmHg 90%
    21:00 -10°C° 0 mm 2 mps 752 mmHg 91%
    22:00 -10°C° 0 mm 2 mps 752 mmHg 91%
    23:00 -10°C° 0 mm 2 mps 752 mmHg 92%

    27 November, Wednesday

    Time Temperature Precipitation Wind Pressure Humidity
    00:00 -10°C° 0 mm 2 mps 752 mmHg 92%
    01:00 -12°C° 0 mm 2 mps 752 mmHg 93%
    02:00 -12°C° 0 mm 2 mps 752 mmHg 93%
    03:00 -12°C° 0 mm 2 mps 752 mmHg 93%
    04:00 -12°C° 0 mm 2 mps 752 mmHg 93%
    05:00 -12°C° 0 mm 2 mps 752 mmHg 93%
    06:00 -12°C° 0 mm 2 mps 752 mmHg 93%
    07:00 -12°C° 0 mm 2 mps 752 mmHg 93%
    08:00 -10°C° 0 mm 2 mps 752 mmHg 91%
    09:00 -9°C° 0 mm 2 mps 752 mmHg 89%
    10:00 -9°C° 0 mm 2 mps 753 mmHg 86%
    11:00 -8°C° 0 mm 2 mps 753 mmHg 82%
    12:00 -8°C° 0 mm 3 mps 753 mmHg 79%
    13:00 -7°C° 0 mm 3 mps 753 mmHg 75%
    14:00 -8°C° 0 mm 3 mps 753 mmHg 78%
    15:00 -8°C° 0 mm 2 mps 753 mmHg 82%
    16:00 -8°C° 0 mm 2 mps 753 mmHg 85%
    17:00 -9°C° 0 mm 2 mps 753 mmHg 84%
    18:00 -9°C° 0 mm 2 mps 753 mmHg 84%
    19:00 -9°C° 0 mm 1 mps 753 mmHg 83%
    20:00 -9°C° 0 mm 1 mps 753 mmHg 81%
    21:00 -9°C° 0 mm 1 mps 753 mmHg 80%
    22:00 -9°C° 0 mm 1 mps 753 mmHg 78%
    23:00 -9°C° 0 mm 1 mps 753 mmHg 76%
    Show more